Location: Unspecified
(0.0000°N, 0.0000°E)
Time: 03:54:40
(UTC+00:00)

Courier 1B Rocket - Visible Passes

Search period start: 01 September 2015 00:00
Search period end: 11 September 2015 00:00
Orbit: 921 x 1202 km, 28.2° (Epoch: 29 August)

Date Brightness Start Highest point End Pass type
(mag) Time Alt. Az. Time Alt. Az. Time Alt. Az.
01 Sep 5.8 03:27:50 57° ESE 03:27:50 57° ESE 03:33:48 10° ESE visible
01 Sep 6.2 05:14:15 14° W 05:20:02 32° SSW 05:26:34 10° SSE visible
02 Sep 7.7 02:31:12 15° ESE 02:31:12 15° ESE 02:32:22 10° ESE visible
02 Sep 5.6 04:17:37 45° SW 04:18:40 47° SSW 04:25:58 10° SE visible
03 Sep 6.5 03:20:52 35° SE 03:20:52 35° SE 03:25:04 10° SE visible
03 Sep 6.7 05:07:16 15° WSW 05:11:35 22° SSW 05:17:12 10° SSE visible
04 Sep 6.2 04:10:26 32° SSW 04:10:26 32° SSW 04:16:48 10° SSE visible
05 Sep 7.1 03:13:32 22° SSE 03:13:32 22° SSE 03:16:05 10° SE visible
05 Sep 7.0 04:59:55 12° SW 05:03:16 16° SSW 05:07:29 10° SSE visible
06 Sep 6.8 04:02:55 21° S 04:02:55 21° S 04:07:21 10° SSE visible
07 Sep 7.5 03:05:52 14° SSE 03:05:52 14° SSE 03:06:50 10° SSE visible
07 Sep 7.3 04:53:05 10° SSW 04:55:08 11° SSW 04:56:53 10° S visible
08 Sep 7.3 03:55:07 14° S 03:55:07 14° S 03:57:35 10° SSE visible
